CW0641 Weather Reports


Display with metric or nautical units.
time (UTC)temp
F
wind
direction
speed
MPH
gust
MPH
rain 1hr
in
rain 24hr
in
rain mn
in
humidity
%
barometer
mb
20260903113124 87 245 4.0 11.0 0.00 0.00 0.00 57 1010.0
20260903112621 87 307 3.0 10.0 0.00 0.00 0.00 56 1010.0
20260903112126 87 287 3.0 10.0 0.00 0.00 0.00 55 1010.1
20260903111621 87 19 4.0 10.0 0.00 0.00 0.00 54 1010.0
20260903111121 87 309 4.0 12.0 0.00 0.00 0.00 54 1010.1
20260903110618 87 314 3.0 12.0 0.00 0.00 0.00 53 1010.2
20260903110122 87 346 3.0 9.0 0.00 0.00 0.00 54 1010.2
20260903105620 86 290 3.0 10.0 0.00 0.00 0.00 54 1010.3
20260903105121 87 328 4.0 10.0 0.00 0.00 0.00 54 1010.2
20260903104617 87 5 3.0 10.0 0.00 0.00 0.00 54 1010.2
20260903104118 87 0 3.0 10.0 0.00 0.00 0.00 53 1010.3
20260903103618 87 355 2.0 10.0 0.00 0.00 0.00 53 1010.3
20260903103117 86 339 3.0 9.0 0.00 0.00 0.00 53 1010.4
20260903102618 86 13 4.0 9.0 0.00 0.00 0.00 53 1010.4
20260903102118 86 272 4.0 9.0 0.00 0.00 0.00 54 1010.5
20260903101618 86 300 4.0 9.0 0.00 0.00 0.00 54 1010.5
20260903101118 86 297 3.0 8.0 0.00 0.00 0.00 55 1010.5
20260903100617 86 355 3.0 8.0 0.00 0.00 0.00 56 1010.5
20260903100117 85 15 2.0 9.0 0.00 0.00 0.00 55 1010.5
20260903095617 85 355 2.0 9.0 0.00 0.00 0.00 56 1010.6
20260903095119 85 0 2.0 9.0 0.00 0.00 0.00 57 1010.7
20260903094619 85 340 2.0 9.0 0.00 0.00 0.00 56 1010.7
20260903094116 85 322 2.0 9.0 0.00 0.00 0.00 55 1010.7
20260903093615 85 5 3.0 9.0 0.00 0.00 0.00 55 1010.8
20260903092116 85 304 3.0 9.0 0.00 0.00 0.00 55 1010.8
20260903091618 85 252 3.0 8.0 0.00 0.00 0.00 55 1010.9
20260903091116 85 355 2.0 9.0 0.00 0.00 0.00 57 1010.9
20260903090615 84 26 2.0 9.0 0.00 0.00 0.00 56 1010.8
20260903090118 83 355 2.0 8.0 0.00 0.00 0.00 58 1010.9
20260903085618 83 300 2.0 11.0 0.00 0.00 0.00 59 1011.0
20260903085118 83 325 2.0 11.0 0.00 0.00 0.00 60 1011.0
20260903084621 83 269 2.0 9.0 0.00 0.00 0.00 60 1011.1
20260903084112 83 59 2.0 8.0 0.00 0.00 0.00 59 1011.1
20260903083612 83 355 2.0 8.0 0.00 0.00 0.00 60 1011.1
20260903083113 83 333 2.0 8.0 0.00 0.00 0.00 60 1011.1
20260903082111 83 300 3.0 9.0 0.00 0.00 0.00 60 1011.3
20260903081614 83 296 2.0 9.0 0.00 0.00 0.00 60 1011.4
20260903081116 83 332 2.0 7.0 0.00 0.00 0.00 60 1011.4
20260903080612 82 355 2.0 8.0 0.00 0.00 0.00 60 1011.3
20260903075613 81 317 2.0 8.0 0.00 0.00 0.00 62 1011.5
20260903075115 80 333 2.0 8.0 0.00 0.00 0.00 62 1011.5
20260903074612 80 252 2.0 7.0 0.00 0.00 0.00 63 1011.5
20260903074114 80 267 2.0 9.0 0.00 0.00 0.00 64 1011.5
20260903073611 80 293 2.0 9.0 0.00 0.00 0.00 65 1011.5
20260903073109 80 286 2.0 7.0 0.00 0.00 0.00 65 1011.4
20260903072609 79 269 2.0 7.0 0.00 0.00 0.00 65 1011.4
20260903071607 78 342 2.0 8.0 0.00 0.00 0.00 69 1011.5
20260903065604 76 261 2.0 6.0 0.00 0.00 0.00 75 1011.5
20260903065105 76 325 2.0 9.0 0.00 0.00 0.00 76 1011.5
20260903064600 76 305 2.0 9.0 0.00 0.00 0.00 77 1011.6
20260903063559 75 350 2.0 8.0 0.00 0.00 0.00 81 1011.5
20260903063101 74 329 2.0 6.0 0.00 0.00 0.00 83 1011.5
20260903062059 73 273 1.0 5.0 0.00 0.00 0.00 84 1011.5
20260903061559 73 340 1.0 4.0 0.00 0.00 0.00 86 1011.5
20260903061053 73 332 1.0 7.0 0.00 0.00 0.00 88 1011.6
20260903060553 73 313 1.0 7.0 0.00 0.00 0.00 89 1011.4
20260903060055 73 252 1.0 4.0 0.00 0.00 0.00 90 1011.6
20260903055051 71 301 2.0 8.0 0.00 0.00 0.00 91 1011.6
20260903054549 71 0 1.0 6.0 0.00 0.00 0.00 91 1011.7
20260903053548 71 325 2.0 6.0 0.00 0.00 0.00 92 1011.7
20260903053050 71 343 1.0 4.0 0.00 0.00 0.00 92 1011.7
20260903052548 71 236 0.0 3.0 0.00 0.00 0.00 93 1012.0
20260903052052 71 248 0.0 3.0 0.00 0.00 0.00 93 1012.0
20260903051548 70 278 0.0 6.0 0.00 0.00 0.00 93 1012.0
20260903051050 70 281 1.0 6.0 0.00 0.00 0.00 93 1012.0
20260903050551 70 263 1.0 5.0 0.00 0.00 0.00 93 1012.0
20260903050047 70 26 1.0 6.0 0.00 0.00 0.00 93 1012.0
20260903045549 70 355 1.0 6.0 0.00 0.00 0.00 93 1011.9
20260903045048 70 257 2.0 5.0 0.00 0.00 0.00 93 1011.9
20260903044549 70 252 2.0 8.0 0.00 0.00 0.00 93 1011.9
20260903044047 70 325 3.0 10.0 0.00 0.00 0.00 93 1011.8
20260903043547 70 313 4.0 10.0 0.00 0.00 0.00 93 1011.7
20260903043047 70 306 3.0 9.0 0.00 0.00 0.00 93 1011.6
20260903042549 70 290 3.0 9.0 0.00 0.00 0.00 93 1011.7
20260903042043 70 302 3.0 8.0 0.00 0.00 0.00 93 1011.7
20260903041545 69 311 3.0 8.0 0.00 0.00 0.00 93 1011.7
20260903041046 69 338 3.0 8.0 0.00 0.00 0.00 93 1011.7
20260903040540 69 315 2.0 7.0 0.00 0.00 0.00 93 1011.6
20260903040042 69 288 2.0 8.0 0.00 0.00 0.00 93 1011.6
20260903035542 69 344 3.0 8.0 0.00 0.00 0.00 93 1011.6
20260903035038 69 296 3.0 9.0 0.00 0.00 0.00 93 1011.6
20260903034535 70 254 3.0 9.0 0.00 0.00 0.00 93 1011.5
20260903034040 70 304 3.0 9.0 0.00 0.00 0.00 93 1011.5
20260903033536 70 302 3.0 8.0 0.00 0.00 0.00 93 1011.5
20260903033035 70 286 3.0 8.0 0.00 0.00 0.00 93 1011.5
20260903032036 69 309 2.0 6.0 0.00 0.00 0.00 93 1011.3
20260903031036 69 318 1.0 4.0 0.00 0.00 0.00 93 1011.3
20260903030540 69 284 0.0 3.0 0.00 0.00 0.00 93 1011.1
20260903030035 69 292 0.0 4.0 0.00 0.00 0.00 93 1011.1
20260903025536 69 292 1.0 4.0 0.00 0.00 0.00 93 1011.1
20260903025037 69 296 1.0 5.0 0.00 0.00 0.00 93 1011.0
20260903024529 69 320 2.0 5.0 0.00 0.00 0.00 93 1011.0
20260903024028 69 318 2.0 5.0 0.00 0.00 0.00 93 1010.9
20260903023528 69 315 2.0 5.0 0.00 0.00 0.00 93 1011.0
20260903023025 69 303 1.0 4.0 0.00 0.00 0.00 93 1011.0
20260903022527 70 325 1.0 4.0 0.00 0.00 0.00 93 1010.9
20260903022024 70 329 1.0 5.0 0.00 0.00 0.00 93 1010.9
20260903021523 70 329 1.0 5.0 0.00 0.00 0.00 93 1010.9
20260903021023 70 329 1.0 5.0 0.00 0.00 0.00 93 1010.9
20260903020524 70 0 2.0 4.0 0.00 0.00 0.00 93 1010.9
20260903020024 70 0 2.0 4.0 0.00 0.00 0.00 93 1010.9
20260903015523 70 347 1.0 4.0 0.00 0.00 0.00 93 1010.9
20260903014025 70 325 2.0 5.0 0.00 0.00 0.00 93 1010.9
20260903013024 70 312 2.0 6.0 0.00 0.00 0.00 93 1010.8
20260903012522 70 337 2.0 5.0 0.00 0.00 0.00 93 1010.8
20260903012027 70 342 2.0 5.0 0.00 0.00 0.00 93 1010.8
20260903011523 70 326 2.0 5.0 0.00 0.00 0.00 93 1010.7
20260903011024 70 326 2.0 5.0 0.00 0.00 0.00 93 1010.8
20260903010523 70 324 2.0 5.0 0.00 0.00 0.00 93 1010.9
20260903010023 70 324 2.0 5.0 0.00 0.00 0.00 93 1010.9
20260903005522 70 310 2.0 7.0 0.00 0.00 0.00 93 1010.9
20260903005022 70 327 2.0 7.0 0.00 0.00 0.00 93 1011.0
20260903004523 70 300 2.0 6.0 0.00 0.00 0.00 93 1010.9
20260903004024 70 311 2.0 8.0 0.00 0.00 0.00 93 1011.0
20260903003523 70 310 2.0 8.0 0.00 0.00 0.00 93 1011.0
20260903003023 70 296 2.0 5.0 0.00 0.00 0.00 93 1011.1
20260903002522 70 317 2.0 7.0 0.00 0.00 0.00 93 1011.1
20260903001523 70 308 1.0 6.0 0.00 0.00 0.00 93 1011.1
20260903001024 70 285 2.0 8.0 0.00 0.00 0.00 93 1011.1
20260903000525 70 299 2.0 8.0 0.00 0.00 0.00 93 1011.1
20260902235519 70 317 3.0 8.0 0.00 0.00 0.00 93 1011.3
20260902235019 70 350 2.0 8.0 0.00 0.00 0.00 93 1011.3
20260902234519 70 335 2.0 8.0 0.00 0.00 0.00 93 1011.3
20260902234021 70 308 3.0 8.0 0.00 0.00 0.00 93 1011.4
20260902233518 70 338 3.0 9.0 0.00 0.00 0.00 93 1011.4
20260902233010 70 302 3.0 9.0 0.00 0.00 0.00 93 1011.3
20260902232511 71 300 3.0 8.0 0.00 0.00 0.00 92 1011.4
20260902232006 71 296 3.0 9.0 0.00 0.00 0.00 93 1011.5
20260902231507 71 299 2.0 9.0 0.00 0.00 0.00 93 1011.4
20260902231007 71 296 2.0 7.0 0.00 0.00 0.00 92 1011.5
20260902225501 71 329 2.0 5.0 0.00 0.00 0.00 92 1011.3
20260902224955 71 329 2.0 7.0 0.00 0.00 0.00 92 1011.3
20260902224458 71 270 2.0 7.0 0.00 0.00 0.00 92 1011.3
20260902223958 71 302 2.0 6.0 0.00 0.00 0.00 92 1011.4
20260902223443 71 302 2.0 6.0 0.00 0.00 0.00 92 1011.4
20260902222946 71 270 2.0 8.0 0.00 0.00 0.00 92 1011.4
20260902222444 71 325 3.0 8.0 0.00 0.00 0.00 92 1011.4
20260902221944 71 324 3.0 8.0 0.00 0.00 0.00 92 1011.4
20260902221448 72 296 3.0 8.0 0.00 0.00 0.00 92 1011.4
20260902220944 72 324 3.0 8.0 0.00 0.00 0.00 92 1011.5
20260902220444 72 333 2.0 8.0 0.00 0.00 0.00 92 1011.4
20260902215939 72 318 1.0 6.0 0.00 0.00 0.00 92 1011.5
20260902214936 71 287 1.0 5.0 0.00 0.00 0.00 91 1011.6
20260902213938 72 294 1.0 5.0 0.00 0.00 0.00 91 1011.7
20260902213438 72 321 1.0 5.0 0.00 0.00 0.00 91 1011.7
20260902212438 72 332 1.0 7.0 0.00 0.00 0.00 91 1011.7
20260902211935 72 327 1.0 7.0 0.00 0.00 0.00 91 1011.7
20260902211435 72 309 1.0 6.0 0.00 0.00 0.00 91 1011.8
20260902210932 72 319 2.0 6.0 0.00 0.00 0.00 91 1011.8
20260902205935 72 313 1.0 5.0 0.00 0.00 0.00 91 1011.8
20260902205433 72 298 2.0 8.0 0.00 0.00 0.00 91 1011.8
20260902204930 72 300 2.0 8.0 0.00 0.00 0.00 91 1011.8
20260902204431 72 341 2.0 8.0 0.00 0.00 0.00 91 1011.8
20260902203934 72 309 2.0 8.0 0.00 0.00 0.00 91 1011.9
20260902203432 72 275 2.0 8.0 0.00 0.00 0.00 90 1011.8
20260902202935 72 308 2.0 7.0 0.00 0.00 0.00 90 1011.8
20260902202430 72 275 2.0 7.0 0.00 0.00 0.00 90 1011.8
20260902201931 72 312 2.0 6.0 0.00 0.00 0.00 90 1011.9
20260902201429 73 319 2.0 7.0 0.00 0.00 0.00 90 1011.9
20260902200929 73 318 3.0 9.0 0.00 0.00 0.00 90 1011.9
20260902195930 73 296 2.0 6.0 0.00 0.00 0.00 90 1012.0
20260902195430 73 329 2.0 6.0 0.00 0.00 0.00 90 1012.1
20260902194925 73 334 2.0 6.0 0.00 0.00 0.00 89 1012.1
20260902193925 73 286 2.0 8.0 0.00 0.00 0.00 89 1012.1
20260902192923 73 305 3.0 8.0 0.00 0.00 0.00 89 1012.0
20260902192423 73 342 2.0 8.0 0.00 0.00 0.00 89 1012.0
20260902191926 73 294 3.0 7.0 0.00 0.00 0.00 89 1012.0
20260902191419 73 290 3.0 8.0 0.00 0.00 0.00 88 1011.9
20260902190918 73 296 2.0 8.0 0.00 0.00 0.00 88 1011.9
20260902190416 74 325 2.0 8.0 0.00 0.00 0.00 88 1011.9
20260902185913 74 309 3.0 8.0 0.00 0.00 0.00 88 1012.0
20260902185413 74 339 4.0 8.0 0.00 0.00 0.00 87 1012.0
20260902184911 74 288 3.0 8.0 0.00 0.00 0.00 87 1012.0
20260902184413 74 324 3.0 8.0 0.00 0.00 0.00 87 1012.1
20260902183913 74 313 3.0 7.0 0.00 0.00 0.00 87 1012.1
20260902183410 74 287 3.0 9.0 0.00 0.00 0.00 86 1012.1
20260902182912 74 330 2.0 9.0 0.00 0.00 0.00 86 1012.1
20260902182406 74 318 3.0 8.0 0.00 0.00 0.00 85 1012.0
20260902181908 74 292 3.0 8.0 0.00 0.00 0.00 85 1012.0
20260902181405 75 295 3.0 9.0 0.00 0.00 0.00 85 1012.0
20260902180904 75 293 3.0 10.0 0.00 0.00 0.00 85 1012.0
20260902180407 75 348 3.0 10.0 0.00 0.00 0.00 84 1012.0
20260902175901 75 271 3.0 10.0 0.00 0.00 0.00 84 1012.0
20260902175359 75 292 3.0 10.0 0.00 0.00 0.00 83 1011.9
20260902174900 75 327 3.0 9.0 0.00 0.00 0.00 83 1011.9
20260902174359 75 311 3.0 9.0 0.00 0.00 0.00 82 1011.8
20260902173856 75 296 3.0 9.0 0.00 0.00 0.00 82 1011.8
20260902173355 76 269 4.0 9.0 0.00 0.00 0.00 81 1011.7
20260902172857 76 296 3.0 10.0 0.00 0.00 0.00 81 1011.8
20260902172400 76 285 3.0 10.0 0.00 0.00 0.00 80 1011.7
20260902170856 76 297 4.0 11.0 0.00 0.00 0.00 78 1011.5
20260902170355 77 291 3.0 11.0 0.00 0.00 0.00 78 1011.5
20260902165855 77 318 3.0 10.0 0.00 0.00 0.00 77 1011.4
20260902164854 77 290 4.0 10.0 0.00 0.00 0.00 76 1011.3
20260902164354 77 287 5.0 11.0 0.00 0.00 0.00 75 1011.1
20260902163854 78 297 4.0 11.0 0.00 0.00 0.00 74 1011.1
20260902163351 78 315 3.0 10.0 0.00 0.00 0.00 74 1011.0
20260902162851 78 320 2.0 9.0 0.00 0.00 0.00 73 1011.0
20260902162350 78 40 3.0 12.0 0.00 0.00 0.00 72 1011.1
20260902161849 79 316 4.0 12.0 0.00 0.00 0.00 71 1011.0
20260902161352 79 312 4.0 11.0 0.00 0.00 0.00 70 1011.0
20260902155843 80 348 3.0 11.0 0.00 0.00 0.00 67 1011.0
20260902155343 80 0 4.0 11.0 0.00 0.00 0.00 66 1011.0
20260902154842 80 355 4.0 10.0 0.00 0.00 0.00 66 1010.9
20260902154337 81 30 4.0 12.0 0.00 0.00 0.00 65 1010.8
20260902153834 81 340 4.0 12.0 0.00 0.00 0.00 65 1010.8
20260902153337 81 347 4.0 12.0 0.00 0.00 0.00 64 1010.8
20260902152833 82 349 4.0 11.0 0.00 0.00 0.00 63 1010.8
20260902152332 82 347 4.0 12.0 0.00 0.00 0.00 63 1010.8
20260902151831 82 323 3.0 12.0 0.00 0.00 0.00 62 1010.8
20260902150829 83 5 4.0 11.0 0.00 0.00 0.00 61 1010.8
20260902150330 83 301 4.0 11.0 0.00 0.00 0.00 61 1010.8
20260902145831 83 0 3.0 9.0 0.00 0.00 0.00 61 1010.8
20260902145332 84 351 4.0 11.0 0.00 0.00 0.00 60 1010.8
20260902144832 84 0 4.0 11.0 0.00 0.00 0.00 60 1010.8
20260902143325 85 304 4.0 11.0 0.00 0.00 0.00 58 1010.9
20260902142826 85 5 5.0 11.0 0.00 0.00 0.00 58 1010.8
20260902141823 85 314 4.0 10.0 0.00 0.00 0.00 58 1010.8
20260902141325 85 40 5.0 13.0 0.00 0.00 0.00 57 1010.8
20260902140822 86 344 5.0 13.0 0.00 0.00 0.00 57 1010.8
20260902140323 86 351 5.0 11.0 0.00 0.00 0.00 57 1010.8
20260902135825 86 351 5.0 11.0 0.00 0.00 0.00 57 1010.8
20260902135326 86 325 5.0 14.0 0.00 0.00 0.00 57 1010.8
20260902134826 86 5 5.0 14.0 0.00 0.00 0.00 57 1010.8
20260902134322 86 16 5.0 10.0 0.00 0.00 0.00 57 1010.8
20260902133822 87 317 5.0 10.0 0.00 0.00 0.00 57 1010.7
20260902133317 87 0 5.0 10.0 0.00 0.00 0.00 57 1010.7
20260902132319 87 340 5.0 12.0 0.00 0.00 0.00 57 1010.7
20260902131819 87 342 4.0 11.0 0.00 0.00 0.00 57 1010.7
20260902131320 87 327 5.0 11.0 0.00 0.00 0.00 57 1010.8
20260902130316 88 316 6.0 14.0 0.00 0.00 0.00 56 1010.8
20260902125318 88 335 4.0 11.0 0.00 0.00 0.00 55 1010.8
20260902124816 88 5 4.0 11.0 0.00 0.00 0.00 55 1010.8
20260902124313 88 280 4.0 11.0 0.00 0.00 0.00 54 1010.8
20260902123817 88 286 4.0 11.0 0.00 0.00 0.00 54 1010.9
20260902123315 89 334 4.0 11.0 0.00 0.00 0.00 53 1010.9
20260902122314 89 337 5.0 10.0 0.00 0.00 0.00 52 1010.8
20260902121813 90 344 5.0 11.0 0.00 0.00 0.00 52 1010.9
20260902121311 90 327 4.0 12.0 0.00 0.00 0.00 51 1010.8
20260902120313 90 320 4.0 10.0 0.00 0.00 0.00 49 1011.0
20260902115310 90 5 2.0 10.0 0.00 0.00 0.00 47 1011.0
20260902114808 90 38 2.0 10.0 0.00 0.00 0.00 47 1011.1
20260902113806 90 277 3.0 11.0 0.00 0.00 0.00 44 1011.3
20260902113303 90 322 3.0 11.0 0.00 0.00 0.00 43 1011.4